{"data":{"norad_id":66523,"epoch":"2026-05-25T04:31:34.760064Z","epoch_age_seconds":52561,"freshness":"FRESH","line1":"1 66523U 25265H   26145.18859676  .00020723  00000+0  76025-3 0  9996","line2":"2 66523  42.9991 205.8482 0000853 268.2397  91.8356 15.27588923 28811","mean_motion":15.27588923,"eccentricity":8.53e-5,"inclination_deg":42.9991,"raan_deg":205.8482,"arg_perigee_deg":268.2397,"mean_anomaly_deg":91.8356,"bstar":0.00076025,"rev_number":2881,"period_min":94.266198079783,"perigee_km":482.43712060278,"apogee_km":483.60763439258,"semimajor_km":6861.1593774977,"source":"CELESTRAK","updated_at":"2026-05-25T13:38:21.250552Z"}}